FW7745 Weather Reports


time (UTC)temp
C
wind
direction
speed
KPH
gust
KPH
rain 1hr
cm
rain 24hr
cm
rain mn
cm
humidity
%
barometer
mb
20260502151843 13 312 4.8 4.8 0.00 0.00 0.00 51 1016.7
20260502151340 13 359 4.8 4.8 0.00 0.00 0.00 52 1016.8
20260502150837 12 13 9.7 12.9 0.00 0.00 0.00 51 1016.6
20260502150334 13 324 4.8 4.8 0.00 0.00 0.00 51 1016.6
20260502130722 10 13 1.6 4.8 0.00 0.00 0.00 64 1016.7
20260502130220 10 342 1.6 3.2 0.00 0.00 0.00 65 1016.4
20260502123706 10 1 6.4 9.7 0.00 0.00 0.00 67 1016.5
20260502123202 10 317 6.4 8.0 0.00 0.00 0.00 67 1016.7
20260502122658 10 20 8.0 9.7 0.00 0.00 0.00 67 1016.5
20260502122155 10 266 4.8 4.8 0.00 0.00 0.00 67 1016.5
20260502121653 10 272 4.8 4.8 0.00 0.00 0.00 67 1016.5
20260502121151 10 357 4.8 8.0 0.00 0.00 0.00 68 1016.5
20260502120647 10 357 8.0 11.3 0.00 0.00 0.00 68 1016.7
20260502120144 10 344 4.8 4.8 0.00 0.00 0.00 68 1016.5
20260502115642 10 281 1.6 1.6 0.00 0.00 0.00 68 1016.5
20260502115137 10 325 6.4 11.3 0.00 0.00 0.00 67 1016.4
20260502114633 10 312 4.8 4.8 0.00 0.00 0.00 67 1016.4
20260502114131 10 314 3.2 4.8 0.00 0.00 0.00 67 1016.5
20260502113628 10 336 4.8 9.7 0.00 0.00 0.00 67 1016.4
20260502113127 10 295 4.8 8.0 0.00 0.00 0.00 67 1016.4
20260502112624 10 352 3.2 3.2 0.00 0.00 0.00 67 1016.6
20260502112121 10 298 8.0 11.3 0.00 0.00 0.00 66 1016.8
20260502111619 10 263 8.0 11.3 0.00 0.00 0.00 66 1016.5
20260502111116 10 356 4.8 9.7 0.00 0.00 0.00 65 1016.4
20260502110614 10 347 4.8 8.0 0.00 0.00 0.00 65 1016.3
20260502110111 10 264 9.7 14.5 0.00 0.00 0.00 64 1016.6
20260502105608 10 7 3.2 3.2 0.00 0.00 0.00 63 1016.1
20260502105106 10 321 8.0 14.5 0.00 0.00 0.00 63 1016.2
20260502104603 10 15 8.0 11.3 0.00 0.00 0.00 64 1016.2
20260502104100 10 23 1.6 1.6 0.00 0.00 0.00 65 1015.9
20260502103558 10 34 6.4 9.7 0.00 0.00 0.00 66 1016.0
20260502103056 10 10 11.3 14.5 0.00 0.00 0.00 66 1015.9
20260502102551 10 326 1.6 3.2 0.00 0.00 0.00 66 1015.9
20260502102049 10 294 4.8 8.0 0.00 0.00 0.00 66 1015.8
20260502101547 10 311 6.4 9.7 0.00 0.00 0.00 66 1015.7
20260502101045 10 300 4.8 4.8 0.00 0.00 0.00 65 1015.6
20260502100543 10 40 8.0 9.7 0.00 0.00 0.00 65 1015.9
20260502091518 11 320 3.2 4.8 0.00 0.00 0.00 65 1014.8
20260502091015 11 352 4.8 8.0 0.00 0.00 0.00 64 1015.1
20260502090512 11 292 6.4 9.7 0.00 0.00 0.00 64 1014.8
20260502071406 13 310 1.6 1.6 0.00 0.00 0.00 67 1014.7
20260502070905 13 308 1.6 1.6 0.00 0.00 0.00 67 1014.8
20260502070402 13 51 3.2 4.8 0.00 0.00 0.00 66 1014.6
20260502065901 13 0 6.4 9.7 0.00 0.00 0.00 66 1014.4
20260502065358 13 321 0.0 1.6 0.00 0.00 0.00 66 1014.7
20260502064856 13 274 9.7 11.3 0.00 0.00 0.00 66 1014.5
20260502064354 13 305 8.0 12.9 0.00 0.00 0.00 66 1014.5
20260502063850 13 282 4.8 8.0 0.00 0.00 0.00 66 1014.4
20260502063349 13 276 1.6 3.2 0.00 0.00 0.00 65 1014.3
20260502062846 13 282 4.8 8.0 0.00 0.00 0.00 65 1014.2
20260502062343 13 312 4.8 8.0 0.00 0.00 0.00 64 1014.3
20260502061842 13 327 6.4 9.7 0.00 0.00 0.00 64 1014.7
20260502061339 13 320 6.4 8.0 0.00 0.00 0.00 65 1014.6
20260502060835 13 331 6.4 9.7 0.00 0.00 0.00 64 1014.7
20260502060330 13 350 8.0 14.5 0.00 0.00 0.00 65 1014.7
20260502055828 13 357 8.0 9.7 0.00 0.00 0.00 65 1014.7
20260502055326 13 334 8.0 11.3 0.00 0.00 0.00 66 1015.1
20260502054825 13 344 4.8 8.0 0.00 0.00 0.00 67 1014.7
20260502054322 14 328 1.6 4.8 0.00 0.00 0.00 66 1014.9
20260502053820 13 325 3.2 4.8 0.00 0.00 0.00 66 1014.7
20260502053316 13 4 1.6 3.2 0.00 0.00 0.00 67 1014.9
20260502052814 14 6 4.8 9.7 0.00 0.00 0.00 68 1014.6
20260502052312 14 337 8.0 14.5 0.00 0.00 0.00 68 1014.8
20260502051810 13 61 0.0 1.6 0.00 0.00 0.00 70 1014.8
20260502051309 13 321 1.6 1.6 0.00 0.00 0.00 73 1014.8
20260502050804 13 346 1.6 3.2 0.00 0.00 0.00 77 1014.9
20260502050300 13 248 0.0 0.0 0.00 0.00 0.00 79 1014.8
20260502045758 13 236 1.6 1.6 0.00 0.00 0.00 79 1014.8
20260502045254 13 177 4.8 8.0 0.00 0.00 0.00 78 1014.9
20260502044751 13 211 4.8 4.8 0.00 0.00 0.00 75 1014.8
20260502044247 13 253 0.0 1.6 0.00 0.00 0.00 76 1015.0
20260502043745 13 198 1.6 1.6 0.00 0.00 0.00 75 1014.9
20260502043242 13 278 1.6 1.6 0.00 0.00 0.00 75 1015.0
20260502042742 14 224 3.2 3.2 0.00 0.00 0.00 74 1014.9
20260502042239 14 160 3.2 3.2 0.00 0.00 0.00 73 1014.8
20260502041737 14 174 4.8 9.7 0.00 0.00 0.00 73 1014.8
20260502041234 14 201 4.8 8.0 0.00 0.00 0.00 72 1014.7
20260502040731 14 202 0.0 1.6 0.00 0.00 0.00 72 1014.8
20260502040228 14 224 3.2 3.2 0.00 0.00 0.00 70 1014.6
20260502035724 14 221 1.6 1.6 0.00 0.00 0.00 69 1014.5
20260502035221 14 339 0.0 1.6 0.00 0.00 0.00 67 1014.5
20260502034718 14 277 3.2 3.2 0.00 0.00 0.00 67 1014.5
20260502034216 14 205 1.6 1.6 0.00 0.00 0.00 66 1014.1
20260502033714 14 188 3.2 4.8 0.00 0.00 0.00 66 1014.1
20260502033212 14 138 3.2 3.2 0.00 0.00 0.00 66 1014.0
20260502032708 14 164 3.2 4.8 0.00 0.00 0.00 66 1014.0
20260502032204 14 223 4.8 8.0 0.00 0.00 0.00 66 1013.9
20260502031702 14 227 3.2 3.2 0.00 0.00 0.00 66 1013.6
20260502031200 14 156 8.0 11.3 0.00 0.00 0.00 66 1013.9
20260502030658 14 143 6.4 8.0 0.00 0.00 0.00 65 1013.8
20260502030156 14 220 1.6 1.6 0.00 0.00 0.00 65 1013.6
20260502025653 14 199 1.6 3.2 0.00 0.00 0.00 65 1013.4
20260502025151 14 136 1.6 3.2 0.00 0.00 0.00 65 1013.6
20260502024648 14 127 4.8 4.8 0.00 0.00 0.00 64 1013.6
20260502024146 14 181 6.4 8.0 0.00 0.00 0.00 64 1013.4
20260502023644 14 175 1.6 8.0 0.00 0.00 0.00 64 1013.7
20260502023141 14 194 3.2 4.8 0.00 0.00 0.00 63 1013.7
20260502022638 14 160 4.8 8.0 0.00 0.00 0.00 63 1013.9
20260502022135 14 209 3.2 4.8 0.00 0.00 0.00 63 1013.7
20260502021632 14 136 1.6 3.2 0.00 0.00 0.00 62 1013.7
20260502021129 15 125 3.2 3.2 0.00 0.00 0.00 62 1013.7
20260502020627 15 159 3.2 3.2 0.00 0.00 0.00 61 1013.8
20260502020123 15 166 0.0 0.0 0.00 0.00 0.00 61 1013.7
20260502015621 15 193 1.6 1.6 0.00 0.00 0.00 60 1013.7
20260502015117 15 215 4.8 4.8 0.00 0.00 0.00 60 1013.7
20260502014615 15 145 4.8 4.8 0.00 0.00 0.00 59 1013.6
20260502014112 15 53 0.0 1.6 0.00 0.00 0.00 59 1013.5
20260502013608 15 171 1.6 1.6 0.00 0.00 0.00 58 1013.4
20260502013103 15 108 6.4 8.0 0.00 0.00 0.00 57 1013.5
20260502012601 15 155 4.8 8.0 0.00 0.00 0.00 56 1013.2
20260502012059 15 161 4.8 4.8 0.00 0.00 0.00 56 1013.1
20260502011555 15 150 6.4 9.7 0.00 0.00 0.00 55 1012.8
20260502011051 16 138 9.7 12.9 0.00 0.00 0.00 54 1012.8
20260502010549 16 164 3.2 3.2 0.00 0.00 0.00 53 1012.9
20260502010045 16 142 4.8 8.0 0.00 0.00 0.00 53 1012.5
20260502005543 16 149 9.7 12.9 0.00 0.00 0.00 52 1012.6
20260502005041 16 129 8.0 11.3 0.00 0.00 0.00 51 1012.5
20260502004536 16 131 6.4 9.7 0.00 0.00 0.00 51 1012.4
20260502004033 16 123 9.7 11.3 0.00 0.00 0.00 50 1012.3
20260502003531 17 139 6.4 8.0 0.00 0.00 0.00 48 1012.3
20260502003027 17 125 9.7 11.3 0.00 0.00 0.00 47 1012.0
20260502002524 17 143 6.4 8.0 0.00 0.00 0.00 47 1012.1
20260502002021 17 237 6.4 11.3 0.00 0.00 0.00 46 1012.2
20260502001519 17 307 1.6 3.2 0.00 0.00 0.00 45 1012.6
20260502001016 17 172 4.8 8.0 0.00 0.00 0.00 45 1012.4
20260502000514 17 109 3.2 3.2 0.00 0.00 0.00 45 1012.6
20260502000011 17 239 6.4 8.0 0.00 0.00 0.00 45 1012.4
20260501235507 17 142 1.6 3.2 0.00 0.00 0.00 45 1012.3
20260501235002 17 233 0.0 1.6 0.00 0.00 0.00 45 1012.2
20260501234458 17 165 6.4 9.7 0.00 0.00 0.00 44 1012.0
20260501233957 17 171 3.2 8.0 0.00 0.00 0.00 44 1012.3
20260501233455 18 229 1.6 3.2 0.00 0.00 0.00 43 1012.1
20260501232950 18 88 4.8 4.8 0.00 0.00 0.00 43 1012.0
20260501232447 18 169 1.6 1.6 0.00 0.00 0.00 43 1012.0
20260501231944 18 157 4.8 4.8 0.00 0.00 0.00 42 1011.8
20260501231443 18 83 8.0 11.3 0.00 0.00 0.00 41 1012.0
20260501230941 18 350 3.2 3.2 0.00 0.00 0.00 41 1012.0
20260501230439 18 182 3.2 8.0 0.00 0.00 0.00 41 1011.8
20260501225936 19 167 6.4 14.5 0.00 0.00 0.00 40 1012.1
20260501225434 19 217 8.0 11.3 0.00 0.00 0.00 39 1012.0
20260501224930 19 200 11.3 12.9 0.00 0.00 0.00 39 1012.2
20260501224427 19 185 11.3 14.5 0.00 0.00 0.00 39 1012.2
20260501223924 19 197 8.0 12.9 0.00 0.00 0.00 40 1012.3
20260501223420 20 245 4.8 8.0 0.00 0.00 0.00 39 1012.5
20260501222916 20 199 11.3 16.1 0.00 0.00 0.00 38 1012.4
20260501222414 19 184 9.7 12.9 0.00 0.00 0.00 39 1012.5
20260501221910 19 240 1.6 1.6 0.00 0.00 0.00 39 1012.2
20260501221407 20 199 12.9 14.5 0.00 0.00 0.00 38 1012.4
20260501220905 20 166 11.3 14.5 0.00 0.00 0.00 39 1012.4
20260501220402 20 210 8.0 12.9 0.00 0.00 0.00 38 1012.7
20260501215858 19 214 8.0 12.9 0.00 0.00 0.00 39 1012.7
20260501215355 20 225 4.8 8.0 0.00 0.00 0.00 38 1012.5
20260501214851 20 321 8.0 12.9 0.00 0.00 0.00 39 1012.7
20260501214346 19 173 11.3 14.5 0.00 0.00 0.00 39 1012.5
20260501213842 20 200 8.0 9.7 0.00 0.00 0.00 38 1012.5
20260501213339 19 134 6.4 9.7 0.00 0.00 0.00 39 1012.7
20260501212834 20 266 3.2 3.2 0.00 0.00 0.00 39 1012.7
20260501212331 19 157 8.0 11.3 0.00 0.00 0.00 40 1012.8
20260501211828 19 138 4.8 9.7 0.00 0.00 0.00 40 1012.6
20260501211326 19 93 3.2 3.2 0.00 0.00 0.00 40 1012.6
20260501210823 18 187 4.8 4.8 0.00 0.00 0.00 40 1012.6
20260501210320 19 147 8.0 11.3 0.00 0.00 0.00 39 1012.7
20260501205816 19 180 8.0 12.9 0.00 0.00 0.00 40 1012.4
20260501205313 20 113 4.8 8.0 0.00 0.00 0.00 40 1012.5
20260501204810 20 210 9.7 12.9 0.00 0.00 0.00 40 1012.6
20260501204306 20 260 9.7 11.3 0.00 0.00 0.00 40 1012.9
20260501203802 19 161 8.0 11.3 0.00 0.00 0.00 41 1013.0
20260501203300 18 23 1.6 1.6 0.00 0.00 0.00 41 1013.2
20260501202757 18 143 8.0 9.7 0.00 0.00 0.00 41 1013.2
20260501202254 19 139 1.6 3.2 0.00 0.00 0.00 40 1013.4
20260501201750 19 158 11.3 12.9 0.00 0.00 0.00 40 1013.0
20260501201247 19 200 4.8 9.7 0.00 0.00 0.00 40 1013.2
20260501200744 19 167 6.4 8.0 0.00 0.00 0.00 39 1013.4
20260501200241 20 170 4.8 12.9 0.00 0.00 0.00 37 1013.7
20260501195739 20 174 12.9 14.5 0.00 0.00 0.00 36 1013.9
20260501195234 20 161 3.2 8.0 0.00 0.00 0.00 36 1013.8
20260501194731 20 164 11.3 16.1 0.00 0.00 0.00 36 1014.0
20260501194226 18 258 8.0 11.3 0.00 0.00 0.00 38 1013.5
20260501193723 19 212 14.5 17.7 0.00 0.00 0.00 38 1014.2
20260501193222 18 249 4.8 8.0 0.00 0.00 0.00 39 1014.1
20260501192719 19 189 14.5 20.9 0.00 0.00 0.00 38 1014.3
20260501192216 19 284 8.0 9.7 0.00 0.00 0.00 39 1014.3
20260501191713 18 198 8.0 11.3 0.00 0.00 0.00 41 1014.4
20260501191210 18 204 6.4 11.3 0.00 0.00 0.00 39 1014.3
20260501190706 18 238 6.4 8.0 0.00 0.00 0.00 40 1014.4
20260501190202 18 226 17.7 25.7 0.00 0.00 0.00 41 1014.5
20260501185658 18 244 9.7 12.9 0.00 0.00 0.00 41 1014.7
20260501185154 19 181 6.4 8.0 0.00 0.00 0.00 40 1014.5
20260501184650 18 186 9.7 12.9 0.00 0.00 0.00 42 1014.7
20260501184145 18 176 9.7 11.3 0.00 0.00 0.00 41 1014.8
20260501183642 18 199 14.5 16.1 0.00 0.00 0.00 42 1014.8
20260501183138 18 232 8.0 14.5 0.00 0.00 0.00 40 1015.0
20260501182635 18 276 4.8 8.0 0.00 0.00 0.00 40 1015.1
20260501182132 18 181 3.2 4.8 0.00 0.00 0.00 40 1015.0
20260501181629 17 50 0.0 1.6 0.00 0.00 0.00 40 1015.2
20260501181125 18 278 4.8 4.8 0.00 0.00 0.00 40 1015.1
20260501180624 17 126 9.7 16.1 0.00 0.00 0.00 39 1015.0
20260501180120 18 260 4.8 4.8 0.00 0.00 0.00 37 1015.1
20260501175617 18 159 4.8 8.0 0.00 0.00 0.00 38 1015.1
20260501175114 17 219 8.0 9.7 0.00 0.00 0.00 39 1015.4
20260501174610 18 181 8.0 9.7 0.00 0.00 0.00 37 1015.1
20260501174108 17 250 6.4 9.7 0.00 0.00 0.00 38 1015.4
20260501173605 17 219 9.7 11.3 0.00 0.00 0.00 39 1015.6
20260501173102 17 241 6.4 12.9 0.00 0.00 0.00 38 1015.5
20260501172557 18 106 8.0 12.9 0.00 0.00 0.00 38 1015.5
20260501172053 17 248 8.0 14.5 0.00 0.00 0.00 41 1015.7
20260501171549 17 265 1.6 1.6 0.00 0.00 0.00 40 1015.9
20260501171046 16 226 1.6 3.2 0.00 0.00 0.00 42 1015.7
20260501170543 16 239 4.8 4.8 0.00 0.00 0.00 41 1016.0
20260501170040 17 271 8.0 11.3 0.00 0.00 0.00 41 1015.9
20260501165538 16 315 3.2 4.8 0.00 0.00 0.00 42 1015.8
20260501165035 17 236 4.8 9.7 0.00 0.00 0.00 42 1015.8
20260501164533 17 276 6.4 8.0 0.00 0.00 0.00 43 1015.7
20260501164029 16 234 4.8 9.7 0.00 0.00 0.00 43 1016.0
20260501163526 16 268 4.8 8.0 0.00 0.00 0.00 44 1016.1
20260501163023 16 204 4.8 8.0 0.00 0.00 0.00 44 1016.0
20260501162519 16 216 11.3 12.9 0.00 0.00 0.00 44 1016.2
20260501162016 16 235 6.4 9.7 0.00 0.00 0.00 43 1016.3
20260501161513 16 277 4.8 8.0 0.00 0.00 0.00 43 1016.2
20260501161010 16 253 12.9 14.5 0.00 0.00 0.00 43 1016.1
20260501160507 17 293 8.0 11.3 0.00 0.00 0.00 43 1016.1
20260501160004 16 201 1.6 3.2 0.00 0.00 0.00 44 1016.2
20260501155500 16 196 3.2 3.2 0.00 0.00 0.00 44 1016.4
20260501154957 15 250 6.4 9.7 0.00 0.00 0.00 46 1016.7
20260501154455 16 249 6.4 9.7 0.00 0.00 0.00 44 1016.6
20260501153951 16 168 3.2 3.2 0.00 0.00 0.00 43 1016.9
20260501153449 16 197 0.0 0.0 0.00 0.00 0.00 42 1017.0